Find Starlink 5406

NORAD ID: 54860 Int'l Des: 2022-177 Owner: SPXS Country: US Constellation: starlink operational
LEOCIRCULAR

Current View

Loading 3D Globe...

About Starlink 5406

Description loading...

Upcoming Passes

Passes for default location (London). Set your location on the main map for personalized predictions.

Altitude History

Loading altitude history...

Two-Line Element Set

1 54860U 22177AS 26150.06596483 .00000069 00000-0 12018-4 0 9998
2 54860 43.0030 22.2122 0001398 253.4723 106.5975 15.27577074189537
Epoch: May 30, 2026 • Age: 10 hours

Current Status

Altitude 491.1 km
Velocity 7.62 km/s
Sub-Earth Point -32.39°S, 174.2°E
Launch Date Dec 28, 2022
Age 3.4 years
Type internet

Technical Details

Classification Payload
Mass 305.00 kg
Dry Mass 290.00 kg
Total Mass 305.00 kg
Length 0.20 m
Diameter 2.80 m
Span 9.00 m
Shape Box + pan
Manufacturer SPXS
Bus Type Starlink
Phase Status In Orbit
Owner/State SPXS/US

Most Searched